Total_Precipitation_Accumulation
1.65 2.13 2.78 3.44 4.23 5.34 6.00 6.11 5.81 5.09 4.54 4.10 3.82 3.51 3.22 2.93 2.45 2.03 1.78 1.66 1.55 1.47 1.61 1.45 1.46 1.38 1.43 1.44 1.53 1.74 1.82 1.60 1.75 1.97 1.80 1.51 1.26 1.25 1.24 1.16 1.22 1.25 1.30
1.52 2.13 2.91 3.73 4.38 4.93 5.28 5.33 4.93 4.16 3.66 3.35 3.25 2.97 2.72 2.37 2.15 1.88 1.81 1.57 1.47 1.44 1.34 1.44 1.26 1.22 1.37 1.34 1.43 1.64 1.65 1.45 1.56 1.83 1.90 1.67 1.57 1.29 0.89 1.03 1.15 1.16 1.38
1.70 2.48 3.31 4.06 4.40 4.41 4.18 3.88 3.67 3.26 3.11 3.02 2.81 2.58 2.50 2.19 2.00 1.78 1.65 1.40 1.24 1.17 1.16 1.17 1.09 1.14 1.04 1.20 1.38 1.48 1.64 1.60 1.41 1.41 1.67 1.63 1.61 1.42 1.03 0.88 0.96 1.16 1.35
1.85 2.58 3.13 3.37 3.51 3.43 3.13 2.92 2.83 2.73 2.66 2.55 2.40 2.09 1.89 1.85 1.72 1.60 1.57 1.44 1.28 1.21 1.16 1.07 1.12 1.12 0.99 1.22 1.05 1.18 1.46 1.56 1.38 1.39 1.34 1.37 1.48 1.52 1.40 1.17 1.00 1.13 1.19
1.42 1.66 1.87 2.03 2.15 2.18 2.33 2.36 2.43 2.54 2.44 2.38 2.33 2.18 1.91 1.87 1.84 1.82 1.87 1.72 1.53 1.33 1.11 1.11 1.21 1.24 1.08 1.12 1.14 1.30 1.33 1.36 1.35 1.35 1.35 1.50 1.53 1.37 1.40 1.41 1.29 1.21 1.00
0.88 0.98 1.08 1.21 1.44 1.49 1.67 1.83 1.90 2.05 2.18 2.17 2.04 1.99 1.92 1.95 1.95 1.89 1.73 1.53 1.41 1.32 1.19 1.23 1.38 1.32 1.26 1.23 1.19 1.22 1.26 1.40 1.48 1.46 1.34 1.40 1.45 1.40 1.47 1.33 1.25 1.28 1.10
0.69 0.84 0.97 1.08 1.27 1.20 1.25 1.44 1.50 1.53 1.67 1.68 1.64 1.70 1.83 1.88 1.74 1.62 1.54 1.41 1.20 1.17 1.23 1.25 1.37 1.33 1.36 1.28 1.37 1.38 1.32 1.39 1.45 1.41 1.37 1.30 1.28 1.37 1.48 1.46 1.30 1.30 1.25
0.60 0.71 0.71 0.78 0.90 0.86 0.94 1.06 1.20 1.28 1.32 1.40 1.45 1.45 1.57 1.59 1.52 1.57 1.48 1.36 1.14 1.05 1.07 1.14 1.18 1.21 1.25 1.23 1.53 1.42 1.42 1.47 1.40 1.30 1.55 1.48 1.29 1.41 1.50 1.62 1.75 1.65 1.58
0.48 0.54 0.46 0.47 0.60 0.70 0.76 0.82 1.00 1.13 1.13 1.25 1.33 1.28 1.35 1.44 1.50 1.52 1.44 1.27 1.26 1.13 1.14 1.15 1.29 1.38 1.40 1.42 1.59 1.55 1.50 1.61 1.45 1.41 1.53 1.48 1.43 1.44 1.42 1.69 1.91 2.05 1.96
0.38 0.40 0.38 0.36 0.43 0.56 0.72 0.81 0.93 1.04 1.06 1.16 1.16 1.03 1.18 1.30 1.45 1.43 1.37 1.33 1.35 1.27 1.31 1.33 1.40 1.47 1.44 1.45 1.59 1.58 1.63 1.69 1.59 1.58 1.59 1.56 1.53 1.62 1.54 1.66 1.86 2.02 2.19
0.37 0.37 0.33 0.31 0.32 0.42 0.61 0.74 0.87 0.96 0.99 1.07 1.15 1.20 1.20 1.14 1.25 1.29 1.29 1.34 1.38 1.30 1.33 1.40 1.48 1.46 1.51 1.62 1.71 1.58 1.62 1.71 1.84 1.79 1.78 1.83 1.90 1.86 1.77 1.83 1.86 1.94 2.16
0.32 0.33 0.34 0.36 0.36 0.38 0.49 0.62 0.75 0.86 0.93 1.02 1.14 1.21 1.31 1.24 1.22 1.24 1.30 1.35 1.46 1.50 1.46 1.49 1.52 1.42 1.45 1.62 1.70 1.68 1.70 1.71 1.73 1.88 2.12 2.09 2.07 1.97 1.83 1.90 1.86 1.90 2.15
0.41 0.39 0.40 0.44 0.47 0.46 0.47 0.57 0.71 0.85 0.97 1.07 1.14 1.23 1.30 1.26 1.25 1.38 1.47 1.49 1.63 1.74 1.76 1.73 1.63 1.54 1.51 1.57 1.66 1.74 1.75 1.78 1.85 1.97 2.05 2.09 2.21 2.09 1.99 1.92 1.88 1.93 2.06
0.46 0.38 0.36 0.40 0.47 0.59 0.63 0.69 0.92 0.92 0.90 1.06 1.18 1.26 1.33 1.35 1.37 1.46 1.53 1.55 1.64 1.79 1.92 1.87 1.79 1.76 1.66 1.54 1.53 1.56 1.62 1.80 1.96 2.01 1.92 1.99 2.21 2.26 2.21 2.05 1.98 2.05 2.18
0.44 0.37 0.34 0.36 0.46 0.61 0.64 0.71 0.84 1.03 1.06 1.21 1.37 1.42 1.54 1.61 1.66 1.75 1.75 1.68 1.69 1.74 1.92 1.99 1.98 1.91 1.75 1.53 1.54 1.65 1.64 1.82 1.88 1.83 1.73 1.71 1.89 2.10 2.20 2.03 2.02 2.13 2.14
0.44 0.46 0.48 0.48 0.53 0.59 0.66 0.73 0.78 0.96 1.16 1.40 1.67 1.70 1.79 1.84 1.94 2.10 2.17 2.10 2.07 2.15 2.19 2.15 2.10 2.01 1.65 1.68 1.67 1.65 1.69 1.81 1.83 1.80 1.74 1.62 1.57 1.60 1.76 1.91 2.04 2.17 2.14
0.60 0.62 0.70 0.68 0.68 0.69 0.73 0.80 0.87 1.03 1.29 1.56 1.80 1.95 2.05 2.12 2.21 2.30 2.32 2.27 2.38 2.54 2.55 2.43 2.27 2.13 2.01 1.89 1.66 1.61 1.55 1.59 1.62 1.67 1.66 1.42 1.29 1.39 1.34 1.52 1.66 1.80 1.88
0.69 0.71 0.82 0.89 0.86 0.86 0.94 1.07 1.21 1.40 1.65 1.85 1.99 2.09 2.11 2.14 2.20 2.27 2.22 2.26 2.40 2.47 2.49 2.42 2.28 2.17 2.08 1.92 1.60 1.52 1.34 1.39 1.44 1.47 1.45 1.41 1.35 1.34 1.39 1.40 1.39 1.38 1.46
0.74 0.80 0.89 1.00 1.08 1.10 1.20 1.28 1.37 1.52 1.73 1.86 1.90 1.90 2.00 2.11 2.17 2.21 2.26 2.28 2.28 2.16 2.08 2.05 2.06 2.02 2.05 1.97 1.62 1.43 1.30 1.42 1.45 1.46 1.48 1.48 1.42 1.52 1.39 1.35 1.41 1.43 1.46
0.72 0.85 0.87 0.95 1.06 1.15 1.17 1.25 1.37 1.54 1.74 1.88 1.89 1.87 1.97 2.05 2.11 2.17 2.23 2.18 2.11 2.06 2.00 1.92 1.93 1.92 1.92 1.88 1.51 1.38 1.33 1.45 1.47 1.51 1.51 1.50 1.38 1.37 1.22 1.18 1.31 1.34 1.38
0.73 0.79 0.91 0.99 1.03 1.11 1.15 1.21 1.32 1.45 1.57 1.64 1.71 1.81 1.95 2.05 2.08 2.12 2.12 2.06 1.97 2.00 2.03 1.95 1.85 1.80 1.79 1.83 1.55 1.38 1.26 1.42 1.58 1.56 1.51 1.48 1.41 1.14 1.06 1.02 1.05 1.10 1.14
0.86 0.90 0.98 1.12 1.19 1.23 1.23 1.31 1.30 1.36 1.46 1.46 1.51 1.54 1.62 1.76 1.81 1.90 1.87 1.88 1.87 1.84 1.83 1.77 1.68 1.60 1.59 1.51 1.40 1.21 1.09 1.17 1.33 1.45 1.46 1.48 1.34 1.07 0.94 0.82 0.80 0.79 0.75
1.08 1.06 1.04 1.11 1.17 1.27 1.36 1.41 1.35 1.30 1.31 1.34 1.40 1.45 1.44 1.58 1.71 1.78 1.74 1.73 1.71 1.65 1.59 1.52 1.47 1.45 1.40 1.32 1.13 0.97 0.89 0.94 1.06 1.24 1.40 1.32 1.14 0.96 0.82 0.76 0.71 0.65 0.60
0.90 0.97 0.99 1.04 1.19 1.18 1.21 1.27 1.29 1.27 1.32 1.38 1.37 1.40 1.44 1.53 1.74 1.82 1.71 1.60 1.54 1.47 1.44 1.39 1.39 1.42 1.43 1.35 1.15 0.95 0.81 0.84 0.93 1.03 1.13 1.14 1.12 1.07 0.99 0.88 0.77 0.67 0.70
0.71 0.74 0.81 0.84 0.92 0.93 0.95 0.99 1.02 1.08 1.13 1.15 1.12 1.08 1.15 1.29 1.48 1.59 1.56 1.42 1.36 1.40 1.41 1.37 1.33 1.28 1.23 1.25 1.17 0.99 0.94 0.97 1.04 1.03 1.08 1.11 1.20 1.24 1.25 1.20 1.11 1.02 0.98
0.60 0.65 0.68 0.69 0.72 0.78 0.86 0.95 1.08 1.18 1.16 1.09 1.03 1.02 1.02 1.12 1.31 1.52 1.59 1.46 1.25 1.27 1.23 1.17 1.11 1.07 1.02 1.00 0.97 0.92 0.89 0.94 0.98 0.93 1.06 1.22 1.32 1.41 1.42 1.41 1.30 1.16 1.05